Date_Time,Julian_Date,Latitude,Longitude,Instrument_Depth,Water_Temperature
(yyyy-mm-dd hh:mn:ss UTC),(JD),(+ deg. North),(+ deg. East),(m),(deg. C)
1985-01-23 14:53:00 UTC,2446089.120139,26.0833,-83.7000,0071,20.5370
1985-01-23 15:08:00 UTC,2446089.130556,26.0833,-83.7000,0071,21.2010
1985-01-23 15:23:00 UTC,2446089.140972,26.0833,-83.7000,0071,21.2340
1985-01-23 15:38:00 UTC,2446089.151389,26.0833,-83.7000,0071,21.2540
1985-01-23 15:53:00 UTC,2446089.161806,26.0833,-83.7000,0071,21.2670
1985-01-23 16:08:00 UTC,2446089.172222,26.0833,-83.7000,0071,21.2830
1985-01-23 16:23:00 UTC,2446089.182639,26.0833,-83.7000,0071,21.2620
1985-01-23 16:38:00 UTC,2446089.193056,26.0833,-83.7000,0071,21.2670
1985-01-23 16:53:00 UTC,2446089.203472,26.0833,-83.7000,0071,21.2700
1985-01-23 17:08:00 UTC,2446089.213889,26.0833,-83.7000,0071,21.2670
1985-01-23 17:23:00 UTC,2446089.224306,26.0833,-83.7000,0071,21.2690
1985-01-23 17:38:00 UTC,2446089.234722,26.0833,-83.7000,0071,21.2810
1985-01-23 17:53:00 UTC,2446089.245139,26.0833,-83.7000,0071,21.2990
1985-01-23 18:08:00 UTC,2446089.255556,26.0833,-83.7000,0071,21.3070
1985-01-23 18:23:00 UTC,2446089.265972,26.0833,-83.7000,0071,21.3070
1985-01-23 18:38:00 UTC,2446089.276389,26.0833,-83.7000,0071,21.2950
1985-01-23 18:53:00 UTC,2446089.286806,26.0833,-83.7000,0071,21.2650
1985-01-23 19:08:00 UTC,2446089.297222,26.0833,-83.7000,0071,21.3150
1985-01-23 19:23:00 UTC,2446089.307639,26.0833,-83.7000,0071,21.3110
1985-01-23 19:38:00 UTC,2446089.318056,26.0833,-83.7000,0071,21.2960
1985-01-23 19:53:00 UTC,2446089.328472,26.0833,-83.7000,0071,21.2830
1985-01-23 20:08:00 UTC,2446089.338889,26.0833,-83.7000,0071,21.3160
1985-01-23 20:23:00 UTC,2446089.349306,26.0833,-83.7000,0071,21.2950
1985-01-23 20:38:00 UTC,2446089.359722,26.0833,-83.7000,0071,21.3130
1985-01-23 20:53:00 UTC,2446089.370139,26.0833,-83.7000,0071,21.3280
1985-01-23 21:08:00 UTC,2446089.380556,26.0833,-83.7000,0071,21.3180
1985-01-23 21:23:00 UTC,2446089.390972,26.0833,-83.7000,0071,21.2900
1985-01-23 21:38:00 UTC,2446089.401389,26.0833,-83.7000,0071,21.2760
1985-01-23 21:53:00 UTC,2446089.411806,26.0833,-83.7000,0071,21.2660
1985-01-23 22:08:00 UTC,2446089.422222,26.0833,-83.7000,0071,21.2630
1985-01-23 22:23:00 UTC,2446089.432639,26.0833,-83.7000,0071,21.2640
1985-01-23 22:38:00 UTC,2446089.443056,26.0833,-83.7000,0071,21.2680
1985-01-23 22:53:00 UTC,2446089.453472,26.0833,-83.7000,0071,21.2650
1985-01-23 23:08:00 UTC,2446089.463889,26.0833,-83.7000,0071,21.2480
1985-01-23 23:23:00 UTC,2446089.474306,26.0833,-83.7000,0071,21.2420
1985-01-23 23:38:00 UTC,2446089.484722,26.0833,-83.7000,0071,21.2300
1985-01-23 23:53:00 UTC,2446089.495139,26.0833,-83.7000,0071,21.2160
1985-01-24 00:08:00 UTC,2446089.505556,26.0833,-83.7000,0071,21.2020
1985-01-24 00:23:00 UTC,2446089.515972,26.0833,-83.7000,0071,21.1810
1985-01-24 00:38:00 UTC,2446089.526389,26.0833,-83.7000,0071,21.1730
1985-01-24 00:53:00 UTC,2446089.536806,26.0833,-83.7000,0071,21.1710
1985-01-24 01:08:00 UTC,2446089.547222,26.0833,-83.7000,0071,21.1800
1985-01-24 01:23:00 UTC,2446089.557639,26.0833,-83.7000,0071,21.1810
1985-01-24 01:38:00 UTC,2446089.568056,26.0833,-83.7000,0071,21.1940
1985-01-24 01:53:00 UTC,2446089.578472,26.0833,-83.7000,0071,21.1910
1985-01-24 02:08:00 UTC,2446089.588889,26.0833,-83.7000,0071,21.1910
1985-01-24 02:23:00 UTC,2446089.599306,26.0833,-83.7000,0071,21.2210
1985-01-24 02:38:00 UTC,2446089.609722,26.0833,-83.7000,0071,21.2430
1985-01-24 02:53:00 UTC,2446089.620139,26.0833,-83.7000,0071,21.2490
1985-01-24 03:08:00 UTC,2446089.630556,26.0833,-83.7000,0071,21.2410
1985-01-24 03:23:00 UTC,2446089.640972,26.0833,-83.7000,0071,21.2660
1985-01-24 03:38:00 UTC,2446089.651389,26.0833,-83.7000,0071,21.2930
1985-01-24 03:53:00 UTC,2446089.661806,26.0833,-83.7000,0071,21.2580
1985-01-24 04:08:00 UTC,2446089.672222,26.0833,-83.7000,0071,21.2690
1985-01-24 04:23:00 UTC,2446089.682639,26.0833,-83.7000,0071,21.2580
1985-01-24 04:38:00 UTC,2446089.693056,26.0833,-83.7000,0071,21.2300
1985-01-24 04:53:00 UTC,2446089.703472,26.0833,-83.7000,0071,21.2290
1985-01-24 05:08:00 UTC,2446089.713889,26.0833,-83.7000,0071,21.2150
1985-01-24 05:23:00 UTC,2446089.724306,26.0833,-83.7000,0071,21.2000
1985-01-24 05:38:00 UTC,2446089.734722,26.0833,-83.7000,0071,21.1900
1985-01-24 05:53:00 UTC,2446089.745139,26.0833,-83.7000,0071,21.1830
1985-01-24 06:08:00 UTC,2446089.755556,26.0833,-83.7000,0071,21.1790
1985-01-24 06:23:00 UTC,2446089.765972,26.0833,-83.7000,0071,21.1730
1985-01-24 06:38:00 UTC,2446089.776389,26.0833,-83.7000,0071,21.1710
1985-01-24 06:53:00 UTC,2446089.786806,26.0833,-83.7000,0071,21.1670
1985-01-24 07:08:00 UTC,2446089.797222,26.0833,-83.7000,0071,21.1630
1985-01-24 07:23:00 UTC,2446089.807639,26.0833,-83.7000,0071,21.1600
1985-01-24 07:38:00 UTC,2446089.818056,26.0833,-83.7000,0071,21.1580
1985-01-24 07:53:00 UTC,2446089.828472,26.0833,-83.7000,0071,21.1540
1985-01-24 08:08:00 UTC,2446089.838889,26.0833,-83.7000,0071,21.1440
1985-01-24 08:23:00 UTC,2446089.849306,26.0833,-83.7000,0071,21.1380
1985-01-24 08:38:00 UTC,2446089.859722,26.0833,-83.7000,0071,21.1320
1985-01-24 08:53:00 UTC,2446089.870139,26.0833,-83.7000,0071,21.1170
1985-01-24 09:08:00 UTC,2446089.880556,26.0833,-83.7000,0071,21.1090
1985-01-24 09:23:00 UTC,2446089.890972,26.0833,-83.7000,0071,21.1040
1985-01-24 09:38:00 UTC,2446089.901389,26.0833,-83.7000,0071,21.0970
1985-01-24 09:53:00 UTC,2446089.911806,26.0833,-83.7000,0071,21.0930
1985-01-24 10:08:00 UTC,2446089.922222,26.0833,-83.7000,0071,21.0890
1985-01-24 10:23:00 UTC,2446089.932639,26.0833,-83.7000,0071,21.0810
1985-01-24 10:38:00 UTC,2446089.943056,26.0833,-83.7000,0071,21.0750
1985-01-24 10:53:00 UTC,2446089.953472,26.0833,-83.7000,0071,21.0700
1985-01-24 11:08:00 UTC,2446089.963889,26.0833,-83.7000,0071,21.0680
1985-01-24 11:23:00 UTC,2446089.974306,26.0833,-83.7000,0071,21.0700
1985-01-24 11:38:00 UTC,2446089.984722,26.0833,-83.7000,0071,21.0700
1985-01-24 11:53:00 UTC,2446089.995139,26.0833,-83.7000,0071,21.0640
1985-01-24 12:08:00 UTC,2446090.005556,26.0833,-83.7000,0071,21.0600
1985-01-24 12:23:00 UTC,2446090.015972,26.0833,-83.7000,0071,21.0620
1985-01-24 12:38:00 UTC,2446090.026389,26.0833,-83.7000,0071,21.0570
1985-01-24 12:53:00 UTC,2446090.036806,26.0833,-83.7000,0071,21.0540
1985-01-24 13:08:00 UTC,2446090.047222,26.0833,-83.7000,0071,21.0510
1985-01-24 13:23:00 UTC,2446090.057639,26.0833,-83.7000,0071,21.0510
1985-01-24 13:38:00 UTC,2446090.068056,26.0833,-83.7000,0071,21.0510
1985-01-24 13:53:00 UTC,2446090.078472,26.0833,-83.7000,0071,21.0530
1985-01-24 14:08:00 UTC,2446090.088889,26.0833,-83.7000,0071,21.0420
1985-01-24 14:23:00 UTC,2446090.099306,26.0833,-83.7000,0071,21.0390
1985-01-24 14:38:00 UTC,2446090.109722,26.0833,-83.7000,0071,21.0460
1985-01-24 14:53:00 UTC,2446090.120139,26.0833,-83.7000,0071,21.0430
1985-01-24 15:08:00 UTC,2446090.130556,26.0833,-83.7000,0071,21.0500
1985-01-24 15:23:00 UTC,2446090.140972,26.0833,-83.7000,0071,21.0450
1985-01-24 15:38:00 UTC,2446090.151389,26.0833,-83.7000,0071,21.0380
1985-01-24 15:53:00 UTC,2446090.161806,26.0833,-83.7000,0071,21.0590
1985-01-24 16:08:00 UTC,2446090.172222,26.0833,-83.7000,0071,21.0630
1985-01-24 16:23:00 UTC,2446090.182639,26.0833,-83.7000,0071,21.0810
1985-01-24 16:38:00 UTC,2446090.193056,26.0833,-83.7000,0071,21.0670
1985-01-24 16:53:00 UTC,2446090.203472,26.0833,-83.7000,0071,21.0310
1985-01-24 17:08:00 UTC,2446090.213889,26.0833,-83.7000,0071,21.0420
1985-01-24 17:23:00 UTC,2446090.224306,26.0833,-83.7000,0071,21.0390
1985-01-24 17:38:00 UTC,2446090.234722,26.0833,-83.7000,0071,21.0490
1985-01-24 17:53:00 UTC,2446090.245139,26.0833,-83.7000,0071,21.0480
1985-01-24 18:08:00 UTC,2446090.255556,26.0833,-83.7000,0071,21.0280
1985-01-24 18:23:00 UTC,2446090.265972,26.0833,-83.7000,0071,21.0090
1985-01-24 18:38:00 UTC,2446090.276389,26.0833,-83.7000,0071,20.9550
1985-01-24 18:53:00 UTC,2446090.286806,26.0833,-83.7000,0071,20.8780
1985-01-24 19:08:00 UTC,2446090.297222,26.0833,-83.7000,0071,20.8490
1985-01-24 19:23:00 UTC,2446090.307639,26.0833,-83.7000,0071,20.8310
1985-01-24 19:38:00 UTC,2446090.318056,26.0833,-83.7000,0071,20.8080
1985-01-24 19:53:00 UTC,2446090.328472,26.0833,-83.7000,0071,20.7920
1985-01-24 20:08:00 UTC,2446090.338889,26.0833,-83.7000,0071,20.7800
1985-01-24 20:23:00 UTC,2446090.349306,26.0833,-83.7000,0071,20.7710
1985-01-24 20:38:00 UTC,2446090.359722,26.0833,-83.7000,0071,20.7670
1985-01-24 20:53:00 UTC,2446090.370139,26.0833,-83.7000,0071,20.7620
1985-01-24 21:08:00 UTC,2446090.380556,26.0833,-83.7000,0071,20.7570
1985-01-24 21:23:00 UTC,2446090.390972,26.0833,-83.7000,0071,20.7540
1985-01-24 21:38:00 UTC,2446090.401389,26.0833,-83.7000,0071,20.7480
1985-01-24 21:53:00 UTC,2446090.411806,26.0833,-83.7000,0071,20.7470
1985-01-24 22:08:00 UTC,2446090.422222,26.0833,-83.7000,0071,20.7450
1985-01-24 22:23:00 UTC,2446090.432639,26.0833,-83.7000,0071,20.7460
1985-01-24 22:38:00 UTC,2446090.443056,26.0833,-83.7000,0071,20.7480
1985-01-24 22:53:00 UTC,2446090.453472,26.0833,-83.7000,0071,20.7470
1985-01-24 23:08:00 UTC,2446090.463889,26.0833,-83.7000,0071,20.7620
1985-01-24 23:23:00 UTC,2446090.474306,26.0833,-83.7000,0071,20.7580
1985-01-24 23:38:00 UTC,2446090.484722,26.0833,-83.7000,0071,20.7580
1985-01-24 23:53:00 UTC,2446090.495139,26.0833,-83.7000,0071,20.7660
1985-01-25 00:08:00 UTC,2446090.505556,26.0833,-83.7000,0071,20.7660
1985-01-25 00:23:00 UTC,2446090.515972,26.0833,-83.7000,0071,20.7570
1985-01-25 00:38:00 UTC,2446090.526389,26.0833,-83.7000,0071,20.7520
1985-01-25 00:53:00 UTC,2446090.536806,26.0833,-83.7000,0071,20.7710
1985-01-25 01:08:00 UTC,2446090.547222,26.0833,-83.7000,0071,20.7840
1985-01-25 01:23:00 UTC,2446090.557639,26.0833,-83.7000,0071,20.7710
1985-01-25 01:38:00 UTC,2446090.568056,26.0833,-83.7000,0071,20.7920
1985-01-25 01:53:00 UTC,2446090.578472,26.0833,-83.7000,0071,20.7940
1985-01-25 02:08:00 UTC,2446090.588889,26.0833,-83.7000,0071,20.7990
1985-01-25 02:23:00 UTC,2446090.599306,26.0833,-83.7000,0071,20.7830
1985-01-25 02:38:00 UTC,2446090.609722,26.0833,-83.7000,0071,20.7590
1985-01-25 02:53:00 UTC,2446090.620139,26.0833,-83.7000,0071,20.7590
1985-01-25 03:08:00 UTC,2446090.630556,26.0833,-83.7000,0071,20.7510
1985-01-25 03:23:00 UTC,2446090.640972,26.0833,-83.7000,0071,20.7480
1985-01-25 03:38:00 UTC,2446090.651389,26.0833,-83.7000,0071,20.7550
1985-01-25 03:53:00 UTC,2446090.661806,26.0833,-83.7000,0071,20.7470
1985-01-25 04:08:00 UTC,2446090.672222,26.0833,-83.7000,0071,20.7530
1985-01-25 04:23:00 UTC,2446090.682639,26.0833,-83.7000,0071,20.7530
1985-01-25 04:38:00 UTC,2446090.693056,26.0833,-83.7000,0071,20.7620
1985-01-25 04:53:00 UTC,2446090.703472,26.0833,-83.7000,0071,20.7590
1985-01-25 05:08:00 UTC,2446090.713889,26.0833,-83.7000,0071,20.7420
1985-01-25 05:23:00 UTC,2446090.724306,26.0833,-83.7000,0071,20.7380
1985-01-25 05:38:00 UTC,2446090.734722,26.0833,-83.7000,0071,20.7340
1985-01-25 05:53:00 UTC,2446090.745139,26.0833,-83.7000,0071,20.7320
1985-01-25 06:08:00 UTC,2446090.755556,26.0833,-83.7000,0071,20.7300
1985-01-25 06:23:00 UTC,2446090.765972,26.0833,-83.7000,0071,20.7270
1985-01-25 06:38:00 UTC,2446090.776389,26.0833,-83.7000,0071,20.7230
1985-01-25 06:53:00 UTC,2446090.786806,26.0833,-83.7000,0071,20.7220
1985-01-25 07:08:00 UTC,2446090.797222,26.0833,-83.7000,0071,20.7220
1985-01-25 07:23:00 UTC,2446090.807639,26.0833,-83.7000,0071,20.7190
1985-01-25 07:38:00 UTC,2446090.818056,26.0833,-83.7000,0071,20.7180
1985-01-25 07:53:00 UTC,2446090.828472,26.0833,-83.7000,0071,20.7180
1985-01-25 08:08:00 UTC,2446090.838889,26.0833,-83.7000,0071,20.7170
1985-01-25 08:23:00 UTC,2446090.849306,26.0833,-83.7000,0071,20.7180
1985-01-25 08:38:00 UTC,2446090.859722,26.0833,-83.7000,0071,20.7160
1985-01-25 08:53:00 UTC,2446090.870139,26.0833,-83.7000,0071,20.7140
1985-01-25 09:08:00 UTC,2446090.880556,26.0833,-83.7000,0071,20.7120
1985-01-25 09:23:00 UTC,2446090.890972,26.0833,-83.7000,0071,20.7110
1985-01-25 09:38:00 UTC,2446090.901389,26.0833,-83.7000,0071,20.7090
1985-01-25 09:53:00 UTC,2446090.911806,26.0833,-83.7000,0071,20.7100
1985-01-25 10:08:00 UTC,2446090.922222,26.0833,-83.7000,0071,20.7090
1985-01-25 10:23:00 UTC,2446090.932639,26.0833,-83.7000,0071,20.7090
1985-01-25 10:38:00 UTC,2446090.943056,26.0833,-83.7000,0071,20.7090
1985-01-25 10:53:00 UTC,2446090.953472,26.0833,-83.7000,0071,20.7090
1985-01-25 11:08:00 UTC,2446090.963889,26.0833,-83.7000,0071,20.7100
1985-01-25 11:23:00 UTC,2446090.974306,26.0833,-83.7000,0071,20.7100
1985-01-25 11:38:00 UTC,2446090.984722,26.0833,-83.7000,0071,20.7100
1985-01-25 11:53:00 UTC,2446090.995139,26.0833,-83.7000,0071,20.7110
1985-01-25 12:08:00 UTC,2446091.005556,26.0833,-83.7000,0071,20.7120
1985-01-25 12:23:00 UTC,2446091.015972,26.0833,-83.7000,0071,20.7120
1985-01-25 12:38:00 UTC,2446091.026389,26.0833,-83.7000,0071,20.7140
1985-01-25 12:53:00 UTC,2446091.036806,26.0833,-83.7000,0071,20.7140
1985-01-25 13:08:00 UTC,2446091.047222,26.0833,-83.7000,0071,20.7150
1985-01-25 13:23:00 UTC,2446091.057639,26.0833,-83.7000,0071,20.7170
1985-01-25 13:38:00 UTC,2446091.068056,26.0833,-83.7000,0071,20.7180
1985-01-25 13:53:00 UTC,2446091.078472,26.0833,-83.7000,0071,20.7200
1985-01-25 14:08:00 UTC,2446091.088889,26.0833,-83.7000,0071,20.7210
1985-01-25 14:23:00 UTC,2446091.099306,26.0833,-83.7000,0071,20.7210
1985-01-25 14:38:00 UTC,2446091.109722,26.0833,-83.7000,0071,20.7220
1985-01-25 14:53:00 UTC,2446091.120139,26.0833,-83.7000,0071,20.7220
1985-01-25 15:08:00 UTC,2446091.130556,26.0833,-83.7000,0071,20.7230
1985-01-25 15:23:00 UTC,2446091.140972,26.0833,-83.7000,0071,20.7210
1985-01-25 15:38:00 UTC,2446091.151389,26.0833,-83.7000,0071,20.7210
1985-01-25 15:53:00 UTC,2446091.161806,26.0833,-83.7000,0071,20.7210
1985-01-25 16:08:00 UTC,2446091.172222,26.0833,-83.7000,0071,20.7210
1985-01-25 16:23:00 UTC,2446091.182639,26.0833,-83.7000,0071,20.7220
1985-01-25 16:38:00 UTC,2446091.193056,26.0833,-83.7000,0071,20.7230
1985-01-25 16:53:00 UTC,2446091.203472,26.0833,-83.7000,0071,20.7230
1985-01-25 17:08:00 UTC,2446091.213889,26.0833,-83.7000,0071,20.7220
1985-01-25 17:23:00 UTC,2446091.224306,26.0833,-83.7000,0071,20.7230
1985-01-25 17:38:00 UTC,2446091.234722,26.0833,-83.7000,0071,20.7220
1985-01-25 17:53:00 UTC,2446091.245139,26.0833,-83.7000,0071,20.7220
1985-01-25 18:08:00 UTC,2446091.255556,26.0833,-83.7000,0071,20.7190
1985-01-25 18:23:00 UTC,2446091.265972,26.0833,-83.7000,0071,20.7170
1985-01-25 18:38:00 UTC,2446091.276389,26.0833,-83.7000,0071,20.7150
1985-01-25 18:53:00 UTC,2446091.286806,26.0833,-83.7000,0071,20.7190
1985-01-25 19:08:00 UTC,2446091.297222,26.0833,-83.7000,0071,20.7120
1985-01-25 19:23:00 UTC,2446091.307639,26.0833,-83.7000,0071,20.7120
1985-01-25 19:38:00 UTC,2446091.318056,26.0833,-83.7000,0071,20.7110
1985-01-25 19:53:00 UTC,2446091.328472,26.0833,-83.7000,0071,20.7080
1985-01-25 20:08:00 UTC,2446091.338889,26.0833,-83.7000,0071,20.7030
1985-01-25 20:23:00 UTC,2446091.349306,26.0833,-83.7000,0071,20.6960
1985-01-25 20:38:00 UTC,2446091.359722,26.0833,-83.7000,0071,20.6880
1985-01-25 20:53:00 UTC,2446091.370139,26.0833,-83.7000,0071,20.6820
1985-01-25 21:08:00 UTC,2446091.380556,26.0833,-83.7000,0071,20.6710
1985-01-25 21:23:00 UTC,2446091.390972,26.0833,-83.7000,0071,20.6620
1985-01-25 21:38:00 UTC,2446091.401389,26.0833,-83.7000,0071,20.6580
1985-01-25 21:53:00 UTC,2446091.411806,26.0833,-83.7000,0071,20.6540
1985-01-25 22:08:00 UTC,2446091.422222,26.0833,-83.7000,0071,20.6540
1985-01-25 22:23:00 UTC,2446091.432639,26.0833,-83.7000,0071,20.6530
1985-01-25 22:38:00 UTC,2446091.443056,26.0833,-83.7000,0071,20.6530
1985-01-25 22:53:00 UTC,2446091.453472,26.0833,-83.7000,0071,20.6540
1985-01-25 23:08:00 UTC,2446091.463889,26.0833,-83.7000,0071,20.6530
1985-01-25 23:23:00 UTC,2446091.474306,26.0833,-83.7000,0071,20.6520
1985-01-25 23:38:00 UTC,2446091.484722,26.0833,-83.7000,0071,20.6530
1985-01-25 23:53:00 UTC,2446091.495139,26.0833,-83.7000,0071,20.6680
1985-01-26 00:08:00 UTC,2446091.505556,26.0833,-83.7000,0071,20.6500
1985-01-26 00:23:00 UTC,2446091.515972,26.0833,-83.7000,0071,20.6480
1985-01-26 00:38:00 UTC,2446091.526389,26.0833,-83.7000,0071,20.6510
1985-01-26 00:53:00 UTC,2446091.536806,26.0833,-83.7000,0071,20.6690
1985-01-26 01:08:00 UTC,2446091.547222,26.0833,-83.7000,0071,20.6690
1985-01-26 01:23:00 UTC,2446091.557639,26.0833,-83.7000,0071,20.6650
1985-01-26 01:38:00 UTC,2446091.568056,26.0833,-83.7000,0071,20.6880
1985-01-26 01:53:00 UTC,2446091.578472,26.0833,-83.7000,0071,20.6490
1985-01-26 02:08:00 UTC,2446091.588889,26.0833,-83.7000,0071,20.6570
1985-01-26 02:23:00 UTC,2446091.599306,26.0833,-83.7000,0071,20.6490
1985-01-26 02:38:00 UTC,2446091.609722,26.0833,-83.7000,0071,20.6490
1985-01-26 02:53:00 UTC,2446091.620139,26.0833,-83.7000,0071,20.6480
1985-01-26 03:08:00 UTC,2446091.630556,26.0833,-83.7000,0071,20.6480
1985-01-26 03:23:00 UTC,2446091.640972,26.0833,-83.7000,0071,20.6440
1985-01-26 03:38:00 UTC,2446091.651389,26.0833,-83.7000,0071,20.6410
1985-01-26 03:53:00 UTC,2446091.661806,26.0833,-83.7000,0071,20.6420
1985-01-26 04:08:00 UTC,2446091.672222,26.0833,-83.7000,0071,20.6410
1985-01-26 04:23:00 UTC,2446091.682639,26.0833,-83.7000,0071,20.6460
1985-01-26 04:38:00 UTC,2446091.693056,26.0833,-83.7000,0071,20.6430
1985-01-26 04:53:00 UTC,2446091.703472,26.0833,-83.7000,0071,20.6450
1985-01-26 05:08:00 UTC,2446091.713889,26.0833,-83.7000,0071,20.6540
1985-01-26 05:23:00 UTC,2446091.724306,26.0833,-83.7000,0071,20.6690
1985-01-26 05:38:00 UTC,2446091.734722,26.0833,-83.7000,0071,20.6610
1985-01-26 05:53:00 UTC,2446091.745139,26.0833,-83.7000,0071,20.6540
1985-01-26 06:08:00 UTC,2446091.755556,26.0833,-83.7000,0071,20.6520
1985-01-26 06:23:00 UTC,2446091.765972,26.0833,-83.7000,0071,20.6480
1985-01-26 06:38:00 UTC,2446091.776389,26.0833,-83.7000,0071,20.6480
1985-01-26 06:53:00 UTC,2446091.786806,26.0833,-83.7000,0071,20.6500
1985-01-26 07:08:00 UTC,2446091.797222,26.0833,-83.7000,0071,20.6590
1985-01-26 07:23:00 UTC,2446091.807639,26.0833,-83.7000,0071,20.6530
1985-01-26 07:38:00 UTC,2446091.818056,26.0833,-83.7000,0071,20.6560
1985-01-26 07:53:00 UTC,2446091.828472,26.0833,-83.7000,0071,20.6490
1985-01-26 08:08:00 UTC,2446091.838889,26.0833,-83.7000,0071,20.6530
1985-01-26 08:23:00 UTC,2446091.849306,26.0833,-83.7000,0071,20.6500
1985-01-26 08:38:00 UTC,2446091.859722,26.0833,-83.7000,0071,20.6470
1985-01-26 08:53:00 UTC,2446091.870139,26.0833,-83.7000,0071,20.6470
1985-01-26 09:08:00 UTC,2446091.880556,26.0833,-83.7000,0071,20.6460
1985-01-26 09:23:00 UTC,2446091.890972,26.0833,-83.7000,0071,20.6460
1985-01-26 09:38:00 UTC,2446091.901389,26.0833,-83.7000,0071,20.6440
1985-01-26 09:53:00 UTC,2446091.911806,26.0833,-83.7000,0071,20.6360
1985-01-26 10:08:00 UTC,2446091.922222,26.0833,-83.7000,0071,20.6230
1985-01-26 10:23:00 UTC,2446091.932639,26.0833,-83.7000,0071,20.6140
1985-01-26 10:38:00 UTC,2446091.943056,26.0833,-83.7000,0071,20.6120
1985-01-26 10:53:00 UTC,2446091.953472,26.0833,-83.7000,0071,20.6040
1985-01-26 11:08:00 UTC,2446091.963889,26.0833,-83.7000,0071,20.5970
1985-01-26 11:23:00 UTC,2446091.974306,26.0833,-83.7000,0071,20.5900
1985-01-26 11:38:00 UTC,2446091.984722,26.0833,-83.7000,0071,20.5840
1985-01-26 11:53:00 UTC,2446091.995139,26.0833,-83.7000,0071,20.5850
1985-01-26 12:08:00 UTC,2446092.005556,26.0833,-83.7000,0071,20.5800
1985-01-26 12:23:00 UTC,2446092.015972,26.0833,-83.7000,0071,20.5780
1985-01-26 12:38:00 UTC,2446092.026389,26.0833,-83.7000,0071,20.5800
1985-01-26 12:53:00 UTC,2446092.036806,26.0833,-83.7000,0071,20.5790
1985-01-26 13:08:00 UTC,2446092.047222,26.0833,-83.7000,0071,20.5800
1985-01-26 13:23:00 UTC,2446092.057639,26.0833,-83.7000,0071,20.5820
1985-01-26 13:38:00 UTC,2446092.068056,26.0833,-83.7000,0071,20.5830
1985-01-26 13:53:00 UTC,2446092.078472,26.0833,-83.7000,0071,20.5870
1985-01-26 14:08:00 UTC,2446092.088889,26.0833,-83.7000,0071,20.5910
1985-01-26 14:23:00 UTC,2446092.099306,26.0833,-83.7000,0071,20.5920
1985-01-26 14:38:00 UTC,2446092.109722,26.0833,-83.7000,0071,20.5970
1985-01-26 14:53:00 UTC,2446092.120139,26.0833,-83.7000,0071,20.6050
1985-01-26 15:08:00 UTC,2446092.130556,26.0833,-83.7000,0071,20.6050
1985-01-26 15:23:00 UTC,2446092.140972,26.0833,-83.7000,0071,20.6130
1985-01-26 15:38:00 UTC,2446092.151389,26.0833,-83.7000,0071,20.6240
1985-01-26 15:53:00 UTC,2446092.161806,26.0833,-83.7000,0071,20.6240
1985-01-26 16:08:00 UTC,2446092.172222,26.0833,-83.7000,0071,20.6340
1985-01-26 16:23:00 UTC,2446092.182639,26.0833,-83.7000,0071,20.6380
1985-01-26 16:38:00 UTC,2446092.193056,26.0833,-83.7000,0071,20.6430
1985-01-26 16:53:00 UTC,2446092.203472,26.0833,-83.7000,0071,20.6470
1985-01-26 17:08:00 UTC,2446092.213889,26.0833,-83.7000,0071,20.6490
1985-01-26 17:23:00 UTC,2446092.224306,26.0833,-83.7000,0071,20.6450
1985-01-26 17:38:00 UTC,2446092.234722,26.0833,-83.7000,0071,20.6460
1985-01-26 17:53:00 UTC,2446092.245139,26.0833,-83.7000,0071,20.6480
1985-01-26 18:08:00 UTC,2446092.255556,26.0833,-83.7000,0071,20.6510
1985-01-26 18:23:00 UTC,2446092.265972,26.0833,-83.7000,0071,20.6560
1985-01-26 18:38:00 UTC,2446092.276389,26.0833,-83.7000,0071,20.6580
1985-01-26 18:53:00 UTC,2446092.286806,26.0833,-83.7000,0071,20.6640
1985-01-26 19:08:00 UTC,2446092.297222,26.0833,-83.7000,0071,20.6680
1985-01-26 19:23:00 UTC,2446092.307639,26.0833,-83.7000,0071,20.6720
1985-01-26 19:38:00 UTC,2446092.318056,26.0833,-83.7000,0071,20.6790
1985-01-26 19:53:00 UTC,2446092.328472,26.0833,-83.7000,0071,20.6800
1985-01-26 20:08:00 UTC,2446092.338889,26.0833,-83.7000,0071,20.6860
1985-01-26 20:23:00 UTC,2446092.349306,26.0833,-83.7000,0071,20.6850
1985-01-26 20:38:00 UTC,2446092.359722,26.0833,-83.7000,0071,20.6910
1985-01-26 20:53:00 UTC,2446092.370139,26.0833,-83.7000,0071,20.6940
1985-01-26 21:08:00 UTC,2446092.380556,26.0833,-83.7000,0071,20.6970
1985-01-26 21:23:00 UTC,2446092.390972,26.0833,-83.7000,0071,20.6980
1985-01-26 21:38:00 UTC,2446092.401389,26.0833,-83.7000,0071,20.6980
1985-01-26 21:53:00 UTC,2446092.411806,26.0833,-83.7000,0071,20.6960
1985-01-26 22:08:00 UTC,2446092.422222,26.0833,-83.7000,0071,20.6940
1985-01-26 22:23:00 UTC,2446092.432639,26.0833,-83.7000,0071,20.6930
1985-01-26 22:38:00 UTC,2446092.443056,26.0833,-83.7000,0071,20.6930
1985-01-26 22:53:00 UTC,2446092.453472,26.0833,-83.7000,0071,20.6940
1985-01-26 23:08:00 UTC,2446092.463889,26.0833,-83.7000,0071,20.6930
1985-01-26 23:23:00 UTC,2446092.474306,26.0833,-83.7000,0071,20.6920
1985-01-26 23:38:00 UTC,2446092.484722,26.0833,-83.7000,0071,20.6910
1985-01-26 23:53:00 UTC,2446092.495139,26.0833,-83.7000,0071,20.6900
1985-01-27 00:08:00 UTC,2446092.505556,26.0833,-83.7000,0071,20.6890
1985-01-27 00:23:00 UTC,2446092.515972,26.0833,-83.7000,0071,20.6820
1985-01-27 00:38:00 UTC,2446092.526389,26.0833,-83.7000,0071,20.6760
1985-01-27 00:53:00 UTC,2446092.536806,26.0833,-83.7000,0071,20.6750
1985-01-27 01:08:00 UTC,2446092.547222,26.0833,-83.7000,0071,20.6750
1985-01-27 01:23:00 UTC,2446092.557639,26.0833,-83.7000,0071,20.6730
1985-01-27 01:38:00 UTC,2446092.568056,26.0833,-83.7000,0071,20.6710
1985-01-27 01:53:00 UTC,2446092.578472,26.0833,-83.7000,0071,20.6700
1985-01-27 02:08:00 UTC,2446092.588889,26.0833,-83.7000,0071,20.6710
1985-01-27 02:23:00 UTC,2446092.599306,26.0833,-83.7000,0071,20.6720
1985-01-27 02:38:00 UTC,2446092.609722,26.0833,-83.7000,0071,20.6760
1985-01-27 02:53:00 UTC,2446092.620139,26.0833,-83.7000,0071,20.6820
1985-01-27 03:08:00 UTC,2446092.630556,26.0833,-83.7000,0071,20.6870
1985-01-27 03:23:00 UTC,2446092.640972,26.0833,-83.7000,0071,20.6910
1985-01-27 03:38:00 UTC,2446092.651389,26.0833,-83.7000,0071,20.6770
1985-01-27 03:53:00 UTC,2446092.661806,26.0833,-83.7000,0071,20.6830
1985-01-27 04:08:00 UTC,2446092.672222,26.0833,-83.7000,0071,20.6660
1985-01-27 04:23:00 UTC,2446092.682639,26.0833,-83.7000,0071,20.6680
1985-01-27 04:38:00 UTC,2446092.693056,26.0833,-83.7000,0071,20.6570
1985-01-27 04:53:00 UTC,2446092.703472,26.0833,-83.7000,0071,20.6590